{"data":{"norad_id":57458,"intl_designator":"2023-107B","name":"STARLINK-30140","alt_names":[],"object_type":"PAYLOAD","status":"ACTIVE","operator":null,"country":"US","launch_date":"2023-07-28","launch_site_code":"AFETR","launch_vehicle":null,"mission":null,"orbit_class":"UNKNOWN","rcs_meters":null,"size_class":null,"mass_kg":null,"dimensions":null,"purposes":["comms"],"wikipedia_slug":null,"has_3d_model":false,"image_url":null,"decayed_at":null,"tle_current":{"epoch":"2026-09-20T05:57:28.463040Z","epoch_age_seconds":149398,"freshness":"FRESH","line1":"1 57458U 23107B   26263.24824610 -.00000124  00000+0  50166-5 0  9998","line2":"2 57458  43.0015 320.6379 0001238 277.9237  82.1474 15.27574223174865","mean_motion":15.27574223,"eccentricity":0.0001238,"inclination_deg":43.0015,"raan_deg":320.6379,"arg_perigee_deg":277.9237,"mean_anomaly_deg":82.1474,"bstar":5.0166e-6,"rev_number":17486,"period_min":94.267105212864,"perigee_km":482.21697753019,"apogee_km":483.91581149067,"semimajor_km":6861.2033945104,"source":"CELESTRAK","updated_at":"2026-09-21T09:00:33.629029Z"}}}